| time (UTC) | temp F | wind direction | speed knots | gust knots | rain 1hr in | rain 24hr in | rain mn in | humidity % | barometer mb |
| 20260504050504 | 56 | 180 | 0.0 | 1.7 | 0.00 | 0.00 | 0.00 | 63 | 1015.8 |
| 20260504050008 | 57 | 180 | 0.0 | 1.7 | 0.00 | 0.00 | 0.00 | 60 | 1015.8 |
| 20260504045504 | 59 | 180 | 0.0 | 1.7 | 0.00 | 0.00 | 0.00 | 56 | 1015.6 |
| 20260504045006 | 59 | 180 | 0.0 | 2.6 | 0.00 | 0.00 | 0.00 | 53 | 1015.4 |
| 20260504044513 | 59 | 190 | 0.9 | 5.2 | 0.00 | 0.00 | 0.00 | 53 | 1015.5 |
| 20260504044006 | 59 | 193 | 0.9 | 5.2 | 0.00 | 0.00 | 0.00 | 53 | 1015.5 |
| 20260504043509 | 59 | 188 | 0.9 | 4.3 | 0.00 | 0.00 | 0.00 | 53 | 1015.4 |
| 20260504043029 | 59 | 172 | 1.7 | 4.3 | 0.00 | 0.00 | 0.00 | 53 | 1015.4 |
| 20260504042506 | 59 | 199 | 2.6 | 3.5 | 0.00 | 0.00 | 0.00 | 53 | 1015.4 |
| 20260504042012 | 59 | 174 | 1.7 | 3.5 | 0.00 | 0.00 | 0.00 | 54 | 1015.5 |
| 20260504041505 | 59 | 180 | 2.6 | 3.5 | 0.00 | 0.00 | 0.00 | 55 | 1015.5 |
| 20260504041002 | 59 | 180 | 1.7 | 2.6 | 0.00 | 0.00 | 0.00 | 55 | 1015.6 |
| 20260504040504 | 58 | 167 | 1.7 | 2.6 | 0.00 | 0.00 | 0.00 | 56 | 1015.8 |
| 20260504040016 | 58 | 175 | 1.7 | 2.6 | 0.00 | 0.00 | 0.00 | 56 | 1015.8 |
| 20260504035507 | 58 | 181 | 0.9 | 1.7 | 0.00 | 0.00 | 0.00 | 56 | 1015.7 |
| 20260504035007 | 58 | 180 | 0.9 | 1.7 | 0.00 | 0.00 | 0.00 | 56 | 1015.8 |
| 20260504034511 | 58 | 176 | 0.9 | 0.9 | 0.00 | 0.00 | 0.00 | 56 | 1016.0 |
| 20260504034006 | 58 | 176 | 0.9 | 1.7 | 0.00 | 0.00 | 0.00 | 57 | 1016.0 |
| 20260504033508 | 58 | 186 | 0.9 | 1.7 | 0.00 | 0.00 | 0.00 | 58 | 1016.0 |
| 20260504033018 | 58 | 186 | 0.0 | 1.7 | 0.00 | 0.00 | 0.00 | 56 | 1016.1 |
| 20260504032506 | 58 | 186 | 0.0 | 0.9 | 0.00 | 0.00 | 0.00 | 55 | 1016.0 |
| 20260504032011 | 58 | 186 | 0.9 | 0.9 | 0.00 | 0.00 | 0.00 | 55 | 1016.1 |
| 20260504031524 | 58 | 186 | 0.0 | 1.7 | 0.00 | 0.00 | 0.00 | 55 | 1016.3 |
| 20260504031010 | 58 | 186 | 0.0 | 1.7 | 0.00 | 0.00 | 0.00 | 55 | 1016.3 |
| 20260504030503 | 58 | 203 | 0.0 | 0.9 | 0.00 | 0.00 | 0.00 | 57 | 1016.4 |
| 20260504030008 | 57 | 203 | 0.9 | 0.9 | 0.00 | 0.00 | 0.00 | 59 | 1016.4 |
| 20260504025503 | 56 | 203 | 0.0 | 1.7 | 0.00 | 0.00 | 0.00 | 64 | 1016.4 |
| 20260504025004 | 56 | 203 | 0.0 | 1.7 | 0.00 | 0.00 | 0.00 | 62 | 1016.4 |
| 20260504024510 | 56 | 203 | 0.0 | 1.7 | 0.00 | 0.00 | 0.00 | 63 | 1016.4 |
| 20260504024004 | 57 | 203 | 0.0 | 1.7 | 0.00 | 0.00 | 0.00 | 63 | 1016.3 |
| 20260504023504 | 57 | 203 | 0.0 | 1.7 | 0.00 | 0.00 | 0.00 | 61 | 1016.4 |
| 20260504023015 | 57 | 203 | 0.0 | 1.7 | 0.00 | 0.00 | 0.00 | 60 | 1016.4 |
| 20260504022506 | 57 | 205 | 0.0 | 1.7 | 0.00 | 0.00 | 0.00 | 59 | 1016.4 |
| 20260504022008 | 57 | 205 | 0.0 | 0.9 | 0.00 | 0.00 | 0.00 | 57 | 1016.4 |
| 20260504021520 | 57 | 205 | 0.0 | 0.0 | 0.00 | 0.00 | 0.00 | 56 | 1016.3 |
| 20260504021006 | 57 | 205 | 0.0 | 1.7 | 0.00 | 0.00 | 0.00 | 59 | 1016.3 |
| 20260504020508 | 57 | 205 | 0.0 | 1.7 | 0.00 | 0.00 | 0.00 | 57 | 1016.2 |
| 20260504020025 | 58 | 205 | 0.0 | 0.0 | 0.00 | 0.00 | 0.00 | 56 | 1016.0 |
| 20260504015502 | 59 | 205 | 0.0 | 0.9 | 0.00 | 0.00 | 0.00 | 55 | 1015.9 |
| 20260504015002 | 60 | 205 | 0.0 | 1.7 | 0.00 | 0.00 | 0.00 | 51 | 1015.8 |
| 20260504014509 | 62 | 205 | 0.0 | 1.7 | 0.00 | 0.00 | 0.00 | 48 | 1015.8 |
| 20260504014005 | 62 | 217 | 0.0 | 1.7 | 0.00 | 0.00 | 0.00 | 44 | 1015.8 |
| 20260504013506 | 63 | 216 | 0.9 | 1.7 | 0.00 | 0.00 | 0.00 | 44 | 1015.6 |
| 20260504013016 | 63 | 177 | 0.9 | 5.2 | 0.00 | 0.00 | 0.00 | 43 | 1015.5 |
| 20260504012505 | 63 | 203 | 0.9 | 5.2 | 0.00 | 0.00 | 0.00 | 41 | 1015.5 |
| 20260504012007 | 63 | 219 | 0.9 | 2.6 | 0.00 | 0.00 | 0.00 | 41 | 1015.5 |
| 20260504011518 | 63 | 208 | 0.9 | 4.3 | 0.00 | 0.00 | 0.00 | 41 | 1015.5 |
| 20260504011010 | 64 | 205 | 1.7 | 5.2 | 0.00 | 0.00 | 0.00 | 40 | 1015.5 |
| 20260504010507 | 64 | 210 | 1.7 | 5.2 | 0.00 | 0.00 | 0.00 | 40 | 1015.7 |
| 20260504010019 | 64 | 260 | 1.7 | 5.2 | 0.00 | 0.00 | 0.00 | 40 | 1015.6 |
| 20260504005509 | 64 | 226 | 1.7 | 5.2 | 0.00 | 0.00 | 0.00 | 40 | 1015.6 |
| 20260504005009 | 65 | 213 | 1.7 | 6.1 | 0.00 | 0.00 | 0.00 | 39 | 1015.6 |
| 20260504004524 | 65 | 213 | 2.6 | 6.1 | 0.00 | 0.00 | 0.00 | 39 | 1015.6 |
| 20260504004003 | 65 | 255 | 2.6 | 6.1 | 0.00 | 0.00 | 0.00 | 39 | 1015.7 |
| 20260504003506 | 65 | 243 | 2.6 | 7.0 | 0.00 | 0.00 | 0.00 | 38 | 1015.6 |
| 20260504003007 | 66 | 232 | 1.7 | 7.0 | 0.00 | 0.00 | 0.00 | 38 | 1015.6 |
| 20260504002506 | 66 | 272 | 1.7 | 5.2 | 0.00 | 0.00 | 0.00 | 38 | 1015.5 |
| 20260504002004 | 66 | 178 | 1.7 | 6.1 | 0.00 | 0.00 | 0.00 | 37 | 1015.5 |
| 20260504001513 | 66 | 210 | 1.7 | 6.1 | 0.00 | 0.00 | 0.00 | 38 | 1015.5 |
| 20260504001007 | 67 | 245 | 1.7 | 6.1 | 0.00 | 0.00 | 0.00 | 38 | 1015.6 |
| 20260504000506 | 67 | 216 | 2.6 | 6.1 | 0.00 | 0.00 | 0.00 | 37 | 1015.7 |
| 20260504000020 | 67 | 255 | 3.5 | 7.0 | 0.00 | 0.00 | 0.00 | 37 | 1015.7 |
| 20260503235508 | 67 | 211 | 1.7 | 7.0 | 0.00 | 0.00 | 0.00 | 37 | 1015.7 |
| 20260503235007 | 67 | 219 | 3.5 | 7.8 | 0.00 | 0.00 | 0.00 | 36 | 1015.8 |
| 20260503234524 | 68 | 185 | 3.5 | 12.2 | 0.00 | 0.00 | 0.00 | 36 | 1015.8 |
| 20260503234008 | 68 | 210 | 3.5 | 12.2 | 0.00 | 0.00 | 0.00 | 36 | 1016.0 |
| 20260503233510 | 68 | 203 | 2.6 | 8.7 | 0.00 | 0.00 | 0.00 | 36 | 1016.0 |
| 20260503233009 | 68 | 199 | 1.7 | 5.2 | 0.00 | 0.00 | 0.00 | 35 | 1016.2 |
| 20260503232504 | 68 | 247 | 2.6 | 6.1 | 0.00 | 0.00 | 0.00 | 35 | 1016.1 |
| 20260503232004 | 68 | 235 | 2.6 | 6.1 | 0.00 | 0.00 | 0.00 | 34 | 1016.3 |
| 20260503231516 | 68 | 187 | 1.7 | 6.1 | 0.00 | 0.00 | 0.00 | 35 | 1016.2 |
| 20260503231006 | 68 | 191 | 1.7 | 11.3 | 0.00 | 0.00 | 0.00 | 34 | 1016.3 |
| 20260503230508 | 68 | 195 | 4.3 | 11.3 | 0.00 | 0.00 | 0.00 | 33 | 1016.4 |
| 20260503230020 | 68 | 245 | 3.5 | 9.6 | 0.00 | 0.00 | 0.00 | 33 | 1016.5 |
| 20260503225506 | 68 | 175 | 3.5 | 8.7 | 0.00 | 0.00 | 0.00 | 34 | 1016.4 |
| 20260503225007 | 68 | 216 | 3.5 | 8.7 | 0.00 | 0.00 | 0.00 | 34 | 1016.5 |
| 20260503224520 | 69 | 239 | 3.5 | 8.7 | 0.00 | 0.00 | 0.00 | 34 | 1016.5 |
| 20260503224010 | 69 | 251 | 1.7 | 7.0 | 0.00 | 0.00 | 0.00 | 33 | 1016.6 |
| 20260503223508 | 69 | 243 | 1.7 | 7.8 | 0.00 | 0.00 | 0.00 | 34 | 1016.6 |
| 20260503223024 | 69 | 213 | 3.5 | 8.7 | 0.00 | 0.00 | 0.00 | 33 | 1016.6 |
| 20260503222511 | 69 | 210 | 3.5 | 8.7 | 0.00 | 0.00 | 0.00 | 33 | 1016.6 |
| 20260503222003 | 69 | 223 | 4.3 | 8.7 | 0.00 | 0.00 | 0.00 | 33 | 1016.6 |
| 20260503221512 | 69 | 107 | 3.5 | 8.7 | 0.00 | 0.00 | 0.00 | 35 | 1016.7 |
| 20260503221008 | 68 | 266 | 3.5 | 8.7 | 0.00 | 0.00 | 0.00 | 31 | 1016.8 |
| 20260503220511 | 69 | 240 | 3.5 | 9.6 | 0.00 | 0.00 | 0.00 | 32 | 1016.9 |
| 20260503220015 | 69 | 222 | 3.5 | 9.6 | 0.00 | 0.00 | 0.00 | 34 | 1017.1 |
| 20260503215508 | 69 | 221 | 2.6 | 7.8 | 0.00 | 0.00 | 0.00 | 35 | 1017.2 |
| 20260503215007 | 69 | 241 | 3.5 | 7.8 | 0.00 | 0.00 | 0.00 | 34 | 1017.2 |
| 20260503214537 | 69 | 272 | 2.6 | 7.8 | 0.00 | 0.00 | 0.00 | 34 | 1017.3 |
| 20260503214009 | 68 | 230 | 2.6 | 9.6 | 0.00 | 0.00 | 0.00 | 34 | 1017.4 |
| 20260503213507 | 68 | 208 | 0.9 | 9.6 | 0.00 | 0.00 | 0.00 | 32 | 1017.4 |
| 20260503213025 | 69 | 211 | 4.3 | 9.6 | 0.00 | 0.00 | 0.00 | 35 | 1017.5 |
| 20260503212510 | 68 | 206 | 2.6 | 6.1 | 0.00 | 0.00 | 0.00 | 35 | 1017.5 |
| 20260503212010 | 68 | 224 | 0.9 | 3.5 | 0.00 | 0.00 | 0.00 | 35 | 1017.5 |
| 20260503211528 | 68 | 218 | 0.9 | 8.7 | 0.00 | 0.00 | 0.00 | 35 | 1017.7 |
| 20260503211004 | 68 | 196 | 0.9 | 8.7 | 0.00 | 0.00 | 0.00 | 35 | 1017.8 |
| 20260503210506 | 69 | 187 | 1.7 | 7.8 | 0.00 | 0.00 | 0.00 | 36 | 1017.9 |
| 20260503210012 | 69 | 175 | 2.6 | 7.0 | 0.00 | 0.00 | 0.00 | 34 | 1018.0 |
| 20260503205505 | 68 | 264 | 1.7 | 10.4 | 0.00 | 0.00 | 0.00 | 35 | 1018.1 |
| 20260503205005 | 69 | 212 | 2.6 | 10.4 | 0.00 | 0.00 | 0.00 | 33 | 1018.1 |
| 20260503204516 | 68 | 195 | 1.7 | 8.7 | 0.00 | 0.00 | 0.00 | 37 | 1018.2 |
| 20260503204007 | 68 | 154 | 4.3 | 8.7 | 0.00 | 0.00 | 0.00 | 34 | 1018.4 |
| 20260503203507 | 68 | 223 | 3.5 | 7.0 | 0.00 | 0.00 | 0.00 | 38 | 1018.4 |
| 20260503203024 | 67 | 203 | 1.7 | 9.6 | 0.00 | 0.00 | 0.00 | 33 | 1018.5 |
| 20260503202503 | 67 | 297 | 1.7 | 9.6 | 0.00 | 0.00 | 0.00 | 35 | 1018.6 |
| 20260503202004 | 68 | 233 | 5.2 | 9.6 | 0.00 | 0.00 | 0.00 | 33 | 1018.8 |
| 20260503201508 | 68 | 260 | 1.7 | 7.8 | 0.00 | 0.00 | 0.00 | 36 | 1018.8 |
| 20260503201007 | 68 | 165 | 1.7 | 7.0 | 0.00 | 0.00 | 0.00 | 34 | 1018.9 |
| 20260503200504 | 68 | 214 | 2.6 | 7.0 | 0.00 | 0.00 | 0.00 | 35 | 1019.1 |
| 20260503200013 | 67 | 165 | 2.6 | 7.8 | 0.00 | 0.00 | 0.00 | 34 | 1019.1 |
| 20260503195507 | 67 | 253 | 1.7 | 9.6 | 0.00 | 0.00 | 0.00 | 33 | 1019.3 |
| 20260503195005 | 67 | 230 | 3.5 | 9.6 | 0.00 | 0.00 | 0.00 | 31 | 1019.4 |
| 20260503194518 | 67 | 226 | 7.0 | 9.6 | 0.00 | 0.00 | 0.00 | 31 | 1019.4 |
| 20260503194007 | 67 | 232 | 2.6 | 6.1 | 0.00 | 0.00 | 0.00 | 36 | 1019.6 |
| 20260503193507 | 67 | 228 | 1.7 | 6.1 | 0.00 | 0.00 | 0.00 | 34 | 1019.7 |
| 20260503193029 | 67 | 217 | 1.7 | 9.6 | 0.00 | 0.00 | 0.00 | 33 | 1019.7 |
| 20260503192507 | 67 | 183 | 3.5 | 9.6 | 0.00 | 0.00 | 0.00 | 33 | 1019.7 |
| 20260503192011 | 66 | 203 | 0.0 | 8.7 | 0.00 | 0.00 | 0.00 | 35 | 1019.7 |
| 20260503191514 | 66 | 197 | 5.2 | 11.3 | 0.00 | 0.00 | 0.00 | 35 | 1019.8 |
| 20260503191004 | 66 | 205 | 3.5 | 11.3 | 0.00 | 0.00 | 0.00 | 35 | 1019.8 |
| 20260503190504 | 66 | 194 | 2.6 | 8.7 | 0.00 | 0.00 | 0.00 | 36 | 1020.0 |
| 20260503190011 | 66 | 249 | 3.5 | 8.7 | 0.00 | 0.00 | 0.00 | 36 | 1020.0 |
| 20260503185506 | 66 | 184 | 2.6 | 8.7 | 0.00 | 0.00 | 0.00 | 36 | 1020.0 |
| 20260503185006 | 65 | 206 | 3.5 | 10.4 | 0.00 | 0.00 | 0.00 | 36 | 1020.2 |
| 20260503184514 | 65 | 110 | 1.7 | 10.4 | 0.00 | 0.00 | 0.00 | 35 | 1020.2 |
| 20260503184007 | 65 | 83 | 0.9 | 7.8 | 0.00 | 0.00 | 0.00 | 38 | 1020.3 |
| 20260503183508 | 65 | 131 | 0.9 | 5.2 | 0.00 | 0.00 | 0.00 | 37 | 1020.5 |
| 20260503183020 | 64 | 253 | 2.6 | 5.2 | 0.00 | 0.00 | 0.00 | 37 | 1020.5 |
| 20260503182506 | 65 | 154 | 0.9 | 7.8 | 0.00 | 0.00 | 0.00 | 37 | 1020.6 |
| 20260503182012 | 65 | 180 | 0.9 | 7.8 | 0.00 | 0.00 | 0.00 | 36 | 1020.7 |
| 20260503181523 | 64 | 232 | 1.7 | 7.0 | 0.00 | 0.00 | 0.00 | 42 | 1020.7 |
| 20260503181007 | 64 | 283 | 1.7 | 9.6 | 0.00 | 0.00 | 0.00 | 38 | 1020.7 |
| 20260503180503 | 64 | 196 | 3.5 | 9.6 | 0.00 | 0.00 | 0.00 | 38 | 1020.7 |
| 20260503180009 | 63 | 215 | 0.9 | 9.6 | 0.00 | 0.00 | 0.00 | 36 | 1020.8 |
| 20260503175503 | 63 | 339 | 4.3 | 9.6 | 0.00 | 0.00 | 0.00 | 36 | 1020.8 |
| 20260503175006 | 63 | 262 | 0.0 | 9.6 | 0.00 | 0.00 | 0.00 | 40 | 1020.9 |
| 20260503174516 | 63 | 224 | 1.7 | 9.6 | 0.00 | 0.00 | 0.00 | 38 | 1021.0 |
| 20260503174004 | 63 | 278 | 1.7 | 5.2 | 0.00 | 0.00 | 0.00 | 36 | 1021.0 |
| 20260503173508 | 63 | 187 | 1.7 | 7.0 | 0.00 | 0.00 | 0.00 | 37 | 1021.0 |
| 20260503173025 | 63 | 207 | 2.6 | 7.8 | 0.00 | 0.00 | 0.00 | 36 | 1021.1 |
| 20260503172506 | 62 | 267 | 3.5 | 8.7 | 0.00 | 0.00 | 0.00 | 36 | 1021.2 |
| 20260503172009 | 62 | 166 | 3.5 | 8.7 | 0.00 | 0.00 | 0.00 | 36 | 1021.4 |
| 20260503171521 | 62 | 166 | 0.9 | 5.2 | 0.00 | 0.00 | 0.00 | 41 | 1021.4 |
| 20260503171012 | 61 | 216 | 1.7 | 7.8 | 0.00 | 0.00 | 0.00 | 41 | 1021.5 |
| 20260503170509 | 61 | 242 | 4.3 | 7.0 | 0.00 | 0.00 | 0.00 | 41 | 1021.7 |
| 20260503151005 | 57 | 174 | 0.9 | 3.5 | 0.00 | 0.00 | 0.00 | 40 | 1022.5 |
| 20260503150512 | 56 | 192 | 1.7 | 4.3 | 0.00 | 0.00 | 0.00 | 44 | 1022.4 |
| 20260503131005 | 47 | 118 | 0.0 | 1.7 | 0.00 | 0.00 | 0.00 | 87 | 1022.4 |
| 20260503130507 | 47 | 118 | 0.0 | 1.7 | 0.00 | 0.00 | 0.00 | 88 | 1022.4 |
| 20260503110507 | 38 | 35 | 0.0 | 0.0 | 0.00 | 0.00 | 0.00 | 91 | 1020.9 |
| 20260503090504 | 40 | 35 | 0.0 | 0.0 | 0.00 | 0.00 | 0.00 | 91 | 1020.5 |
| 20260503081534 | 41 | 35 | 0.0 | 0.0 | 0.00 | 0.00 | 0.00 | 90 | 1020.6 |
| 20260503081008 | 41 | 35 | 0.0 | 0.0 | 0.00 | 0.00 | 0.00 | 90 | 1020.6 |
| 20260503080504 | 41 | 35 | 0.0 | 0.0 | 0.00 | 0.00 | 0.00 | 90 | 1020.5 |
| 20260503072512 | 42 | 35 | 0.0 | 0.0 | 0.00 | 0.00 | 0.00 | 90 | 1020.6 |
| 20260503072010 | 43 | 35 | 0.0 | 0.0 | 0.00 | 0.00 | 0.00 | 90 | 1020.6 |
| 20260503071520 | 43 | 35 | 0.0 | 0.0 | 0.00 | 0.00 | 0.00 | 90 | 1020.5 |
| 20260503071008 | 43 | 35 | 0.0 | 0.0 | 0.00 | 0.00 | 0.00 | 90 | 1020.5 |
| 20260503070508 | 43 | 35 | 0.0 | 0.0 | 0.00 | 0.00 | 0.00 | 90 | 1020.4 |